740  
ASHW40 PHFO 280713  
RWRHI  
 
WEATHER ROUNDUP FOR HAWAII  
NATIONAL WEATHER SERVICE HONOLULU HI  
900 PM HST SAT FEB 27 2021  
 
THIS IS AN AUTOMATED REPORT THAT HAS NOT BEEN QUALITY CONTROLLED.  
 
NOTE..."FAIR" INDICATES FEW OR NO CLOUDS BELOW 12,000 FEET WITH NO  
SIGNIFICANT WEATHER AND/OR S TO VISIBILITY
.  
 
* - THESE SITES REPORT LIMITED FIELDS  
# - BUOY DATA PROVIDED BY PACIFIC ISLANDS OCEAN OBSERVING SYSTEM.  
 
HIZ001>004-280800-  
KAUAI-NIIHAU-  
 
CITY SKY/WX TMP DP RH WIND PRES REMARKS
 
LIHUE APT MOCLDY 72 64 76 NE22 30.19R  
PORT ALLEN* N/A 70 N/A N/A E17G24 N/A  
POIPU* NOT AVBL  
PRINCEVILLE* N/A 72 N/A N/A E7G15 N/A  
KOKOLE POINT* NOT AVBL  
MOLOAA DAIRY* N/A 72 63 73 E5G12 N/A  
WAIMEA HTS* NOT AVBL  
PUU OPAE* NOT AVBL  
PUU LUA* NOT AVBL  
MAKAHA RIDGE* NOT AVBL  

 
 
HIZ005>011-280800-  
OAHU-  
 
CITY SKY/WX TMP DP RH WIND PRES REMARKS
 
HONOLULU PTCLDY 74 62 66 NE12G24 30.15R  
KALAELOA MOCLDY 74 61 63 NE12G17 30.15R  
KANEOHE MCB PTCLDY 74 63 68 E12G23 30.14R  
WHEELER FIELD MOCLDY 69 63 81 NE8 30.18R  
BELLOWS* NOT AVBL  
KAHUKU* NOT AVBL  
WHEELER* NOT AVBL  
WAIANAE HARBOR NOT AVBL  
DILLINGHAM* N/A 70 63 78 E3G10 N/A  
KAHUKU TRN* N/A 70 63 78 E9G23 N/A  
KAWAILOA* NOT AVBL  
KII* N/A 73 64 73 E21G26 N/A  
MAKUA RANGE* N/A 72 63 73 E14G29 N/A  
OAHU FOREST NW NOT AVBL  
SCHOFIELD BRK* N/A 66 61 82 N3 N/A  
SCHOFIELD S* NOT AVBL  
WAIANAE VLY* NOT AVBL  
KUAOKALA* NOT AVBL  
HONOULIUULI* NOT AVBL  
MOKUOLOE IS* N/A 73 N/A N/A E14G24 N/A  
PALEHUA* NOT AVBL  
WAIAWA PHB* NOT AVBL  

 
 
HIZ012>013-280800-  
MOLOKAI-  
 
CITY SKY/WX TMP DP RH WIND PRES REMARKS
 
MOLOKAI AIRPT PTCLDY 72 63 73 NE16G24 30.15R  
KALAUPAPA NOT AVBL  
MAKAPULAPAI* NOT AVBL  
MOLOKAI 1* NOT AVBL  
PUU ALII* NOT AVBL  

 
 
HIZ016-280800-  
KAHOOLAWE-  
 
CITY SKY/WX TMP DP RH WIND PRES REMARKS
 
KAHOOLAWE* NOT AVBL  
HAKIOAWA* NOT AVBL  
HONOKANAIA* NOT AVBL  
KANELOA* N/A 70 64 83 E18G32 30.16R  
KEALIALALO* NOT AVBL  
LUA MAKIKA* NOT AVBL  

 
 
HIZ014>015-280800-  
LANAI-  
 
CITY SKY/WX TMP DP RH WIND PRES REMARKS
 
LANAI CITY FAIR 67 67 100 NE32G39 30.13S  
LANAI 1* NOT AVBL  

 
 
HIZ017>028-280800-  
MAUI-  
 
CITY SKY/WX TMP DP RH WIND PRES REMARKS
 
KAHULUI PTCLDY 72 63 73 NE10 30.15R  
KAPALUA-W MAUI NOT AVBL  
HANA AIRPORT MOCLDY 75 70 83 N12 30.20R  
HANA* N/A 73 N/A N/A NE13G18 N/A  
HALEAKALA SUMM N/A 36 36 100 NE10 N/A VSB 0 WCI 28  
MAALAEA BAY* NOT AVBL  
HALEAKALA* NOT AVBL  
KAUPO GAP* NOT AVBL  
KULA 1* N/A 46 45 93 E2 N/A  

 
 
HIZ023>026-280800-  
BIG ISLAND OF HAWAII COAST AND LOWER SLOPES-  
 
CITY SKY/WX TMP DP RH WIND PRES REMARKS
 
KAILUA KONA PTCLDY 78 67 68 S3 30.07R  
HILO RAIN 70 66 87 MISG 30.17R FOG  
HONOKAA* NOT AVBL  
KAWAIHAE MWT* NOT AVBL  
KAWAIHAE* N/A 79 N/A N/A SW9 N/A  
SOUTH POINT* N/A 68 N/A N/A E21G33 N/A  
UPOLU AIRPORT* N/A 70 N/A N/A E14G21 N/A  
KAMUELA* NOT AVBL  
HAKALAU* N/A 46 46 100 W2 N/A  
KALOKO-HONOKO* NOT AVBL  
PALI 2* N/A 63 55 77 N15G23 N/A  
KEALAKOMO* N/A 70 66 88 NE14G24 N/A  
KAUPULEHU* NOT AVBL  
KAPAPALA* N/A 61 60 96 N3 N/A  
LOWER KAHUKU* NOT AVBL  
PUHE CS* NOT AVBL  
PUHO CS* NOT AVBL  
PTA KEAMUKU* NOT AVBL  
WAIKOLOA* NOT AVBL  

 
 
HIZ027>028-280800-  
BIG ISLAND OF HAWAII INTERIOR AND SUMMMITS-  
 
CITY SKY/WX TMP DP RH WIND PRES REMARKS
 
BRADSHAW FIELD PTCLDY 49 43 79 NE6 30.38R  
MK VISITOR CEN N/A 43 34 70 S3 N/A  
MAUNA KEA* N/A 25 16 68 CALM N/A  
MAUNA LOA* NOT AVBL  
MAUNA LOA 1* NOT AVBL  
PTA KIPUKA* N/A 52 50 93 S6G14 N/A  
PTA RANGE 17* N/A 54 45 71 E9G20 N/A  
PTA WEST* N/A 57 46 67 E9G17 N/A  
NENE CABIN* NOT AVBL  
AHUMOA* NOT AVBL  
PTA PORTABLE* NOT AVBL  
PUU MALI* N/A 48 45 87 E8G25 N/A  

 
 
HIC003-280800-  
NORTHWEST ISLANDS-  
 
CITY SKY/WX TMP DP RH WIND PRES REMARKS
 
MIDWAY ISLAND PTCLDY 70 66 88 E18 30.26R  
MIDWAY NOS* NOT AVBL  
FRENCH FRIGATE NOT AVBL  

 
 
PHZ110>124-180-280800-  
BUOY REPORTS  
 
STATION/POSITION TIME TEMP WIND PRES WAVE SWELL
 
AIR SEA DIR/SP/G HT/PER HT/DIR  
(UTC) (F) (DEG/KT/KT) (MB) (FT/S) (FT/D)  
BUOY 51101 0650 73 75 60/ 21/ 29 1023.7R 12/11 10/ 90  
BUOY 51100 NOT AVBL  
BUOY 51002 0650 74 77 70/ 21/ 27 1017.0R 10/10 7/ 80  
BUOY 51003 0650 77 1019.4R 9/10 7/ 70  
BUOY 51004 0650 74 75 80/ 17/ 21 1017.1R 10/11 8/ 50  
WAIMEA BAY# NOT AVBL  
MOKAPU POINT# 0626 76 N/A 10/11 5/ 70  
LANAI# 0656 77 N/A 4/14 2/180  
BARBERS PT# 0656 76 N/A 4/17 2/300  
PAUWELA# 0656 75 N/A 11/10 7/ 60  
HILO# 0643 76 N/A 10/11 5/ 60  
KANEOHE BAY# 0656 76 N/A 9/10 3/ 70  
KANEOHE BAY 2# NOT AVBL  
HANALEI# NOT AVBL  
KAHULUI HARBOR 0630 73 74 70/ 14/ 19 1021.1R  
HONOLULU HARBOR 0630 74 77 60/ 5/ 8 1021.1R  
PEARL HARBOR# 0630 76 N/A 4/ 7 2/160  
KILO NALU NOT AVBL  
HILO HARBOR 0630 69 77 160/ 5/ 7 1019.5R  
MOKUOLOE 0636 74 75 70/ 16/ 21 1021.3R  
NAWILIWILI 0630 74 80 60/ 16/ 20 1021.9R  
WHOTS BUOY NOT AVBL  
BUOY 51028 NOT AVBL  

 
   
.....................KEY.....................................
 
 
SKY/WX - SKY CONDITIONS/PRESENT WEATHER  
TMP - TEMPERATURE IN FAHRENHEIT  
DWPT - DEWPOINT IN FAHRENHEIT  
RH - RELATIVE HUMIDITY IN PERCENT  
WIND - DIRECTION AND SPEED /MPH FOR ISLANDS...KTS FOR BUOYS/  
PRES - MEAN SEA LEVEL PRESSURE IN INCHES OF HG  
VSB - VISIBILITY IN MILES  
HX - HEAT INDEX  
WCI - WIND CHILL INDEX  
VRB - VARIABLE WIND DIRECTION  
N/A - NOT AVAILABLE  
 
 
CLICK HERE TO GO TO PREVIOUS BULLETINS.

The Nexlab HI Page Main Text Page